Terminal Aerodrome Forecast
Issued by NWS

Home | Current Version | Previous Version | Text Only | Print | Product List | Glossary On
Versions: 1 2 3 4 5 6 7 8 9 10 11 12 13 14 15 16 17 18 19 20 21 22 23 24
000
FTUS46 KSGX 202000 AAA
TAFSAN
TAF AMD
KSAN 202035Z 2021/2124 28010KT P6SM FEW013 SCT029
     FM210300 VRB04KT P6SM OVC015
     FM211730 VRB05KT P6SM SCT020
     FM211900 28010KT P6SM SCT020=

USA.gov is the U.S. government's official web portal to all federal, state and local government web resources and services.